THY1SG LTFM-UBBB

Flight info

Callsign THY1SG
Flight time 2h 22m
Altitude 35000
Route VICEN1D/35L VICEN UT380 ASMAP UL333 LATGA UT363 GURBU UL615 ERZ UN161 INDUR DCT PEMAN T919 TELLI N449 GOTUB T447 INSAN
Aircraft B738/M-SDE2E3FGHIRWXY/LB1

Departure

Time 2026-05-04 19:15
Airport İstanbul Airport (LTFM)

Arrival

Time 2026-05-04 21:37
Airport Heydar Aliyev International Airport (UBBB)
Time Latitude Longitude Altitude Speed Heading
2026-05-04 18:31 41.26558 28.73800 330 ft 0 kts 269°
2026-05-04 18:59 41.26558 28.73805 333 ft 3 kts 269°
2026-05-04 19:00 41.26558 28.73837 329 ft 3 kts 269°
2026-05-04 19:00 41.26563 28.73868 332 ft 4 kts 224°
2026-05-04 19:00 41.26585 28.73879 332 ft 4 kts 180°
2026-05-04 19:00 41.26595 28.73879 331 ft 1 kts 179°
2026-05-04 19:05 41.26578 28.73882 328 ft 3 kts 160°
2026-05-04 19:05 41.26568 28.73898 332 ft 3 kts 121°
2026-05-04 19:05 41.26563 28.73927 331 ft 3 kts 95°
2026-05-04 19:06 41.26562 28.73968 331 ft 6 kts 91°
2026-05-04 19:06 41.26582 28.74020 330 ft 8 kts 21°
2026-05-04 19:06 41.26642 28.74021 329 ft 10 kts 358°
2026-05-04 19:06 41.26715 28.74020 332 ft 11 kts 360°
2026-05-04 19:07 41.26800 28.74019 333 ft 13 kts 359°
2026-05-04 19:07 41.26895 28.74016 332 ft 14 kts 359°
2026-05-04 19:07 41.26955 28.74014 333 ft 8 kts 359°
2026-05-04 19:07 41.27015 28.74013 332 ft 10 kts 353°
2026-05-04 19:08 41.27052 28.73947 333 ft 9 kts 271°
2026-05-04 19:08 41.27052 28.73939 333 ft 0 kts 269°
2026-05-04 19:09 41.27052 28.73934 330 ft 2 kts 269°
2026-05-04 19:10 41.27052 28.73892 333 ft 6 kts 270°
2026-05-04 19:10 41.27051 28.73823 333 ft 9 kts 269°
2026-05-04 19:10 41.27049 28.73731 333 ft 11 kts 269°
2026-05-04 19:10 41.27048 28.73621 330 ft 13 kts 269°
2026-05-04 19:11 41.27046 28.73494 333 ft 15 kts 269°
2026-05-04 19:11 41.27044 28.73352 333 ft 16 kts 269°
2026-05-04 19:11 41.27043 28.73194 333 ft 18 kts 269°
2026-05-04 19:11 41.27042 28.73058 333 ft 12 kts 269°
2026-05-04 19:12 41.27010 28.72990 332 ft 9 kts 199°
2026-05-04 19:12 41.26851 28.72990 329 ft 14 kts 179°
2026-05-04 19:12 41.26751 28.72987 330 ft 14 kts 196°
2026-05-04 19:13 41.26710 28.72871 333 ft 16 kts 269°
2026-05-04 19:13 41.26711 28.72721 332 ft 17 kts 271°
2026-05-04 19:13 41.26707 28.72581 333 ft 11 kts 265°
2026-05-04 19:13 41.26726 28.72516 332 ft 9 kts 338°
2026-05-04 19:14 41.26751 28.72512 331 ft 0 kts 357°
2026-05-04 19:14 41.26941 28.72506 330 ft 66 kts 359°
2026-05-04 19:15 41.27659 28.72488 331 ft 138 kts 359°
2026-05-04 19:15 41.28809 28.72456 499 ft 184 kts 359°
2026-05-04 19:15 41.30058 28.72513 1697 ft 166 kts
2026-05-04 19:15 41.31092 28.72564 3074 ft 137 kts
2026-05-04 19:16 41.32020 28.72624 3787 ft 141 kts
2026-05-04 19:16 41.33095 28.72630 4063 ft 168 kts
2026-05-04 19:16 41.34344 28.72610 4286 ft 191 kts 356°
2026-05-04 19:16 41.35690 28.72027 4506 ft 217 kts 338°
2026-05-04 19:17 41.37004 28.70812 4873 ft 242 kts 318°
2026-05-04 19:17 41.37918 28.68889 5719 ft 253 kts 297°
2026-05-04 19:17 41.38200 28.66512 6517 ft 269 kts 277°
2026-05-04 19:17 41.38153 28.63996 7223 ft 275 kts 276°
2026-05-04 19:18 41.38112 28.61421 7901 ft 281 kts 276°
2026-05-04 19:18 41.37910 28.58791 8580 ft 297 kts 258°
2026-05-04 19:18 41.36792 28.56395 9267 ft 316 kts 225°
2026-05-04 19:18 41.34855 28.54967 9961 ft 325 kts 192°
2026-05-04 19:19 41.32582 28.54802 10438 ft 335 kts 173°
2026-05-04 19:19 41.30209 28.55018 10620 ft 357 kts 174°
2026-05-04 19:19 41.27646 28.55201 10793 ft 379 kts 174°
2026-05-04 19:19 41.25022 28.55939 10925 ft 394 kts 153°
2026-05-04 19:20 41.22726 28.57926 11251 ft 396 kts 132°
2026-05-04 19:20 41.20754 28.60496 11840 ft 399 kts 130°
2026-05-04 19:20 41.18780 28.63112 12522 ft 402 kts 130°
2026-05-04 19:20 41.16776 28.65728 13174 ft 406 kts 131°
2026-05-04 19:21 41.14738 28.68347 13815 ft 410 kts 131°
2026-05-04 19:21 41.12677 28.71010 14322 ft 414 kts 129°
2026-05-04 19:21 41.10940 28.74016 14895 ft 409 kts 117°
2026-05-04 19:21 41.09460 28.77234 15511 ft 409 kts 116°
2026-05-04 19:22 41.07965 28.80474 16015 ft 414 kts 116°
2026-05-04 19:22 41.06436 28.83675 16501 ft 418 kts 117°
2026-05-04 19:22 41.04845 28.86915 16997 ft 421 kts 117°
2026-05-04 19:22 41.03230 28.90176 17494 ft 424 kts 117°
2026-05-04 19:23 41.01556 28.93425 17962 ft 431 kts 123°
2026-05-04 19:23 40.99503 28.96372 18445 ft 438 kts 127°
2026-05-04 19:23 40.97661 28.99547 18765 ft 432 kts 113°
2026-05-04 19:23 40.96493 29.03157 19184 ft 423 kts 99°
2026-05-04 19:24 40.95742 29.06915 19644 ft 423 kts 99°
2026-05-04 19:24 40.94939 29.10671 20058 ft 426 kts 99°
2026-05-04 19:24 40.94094 29.14439 20448 ft 429 kts 100°
2026-05-04 19:24 40.93224 29.18227 20835 ft 432 kts 101°
2026-05-04 19:25 40.92346 29.22003 21215 ft 434 kts 101°
2026-05-04 19:25 40.91452 29.25825 21632 ft 436 kts 101°
2026-05-04 19:25 40.90550 29.29678 21984 ft 439 kts 101°
2026-05-04 19:25 40.89645 29.33544 22333 ft 442 kts 100°
2026-05-04 19:26 40.88734 29.37431 22723 ft 444 kts 100°
2026-05-04 19:26 40.87818 29.41340 23127 ft 445 kts 100°
2026-05-04 19:26 40.86899 29.45253 23512 ft 447 kts 100°
2026-05-04 19:26 40.85973 29.49191 23827 ft 449 kts 100°
2026-05-04 19:27 40.85043 29.53140 24135 ft 451 kts 100°
2026-05-04 19:27 40.84107 29.57105 24483 ft 452 kts 100°
2026-05-04 19:27 40.83168 29.61077 24829 ft 453 kts 100°
2026-05-04 19:27 40.82224 29.65064 25124 ft 455 kts 100°
2026-05-04 19:28 40.81289 29.69011 25372 ft 457 kts 101°
2026-05-04 19:28 40.80335 29.73030 25665 ft 459 kts 101°
2026-05-04 19:28 40.79376 29.77057 25950 ft 460 kts 101°
2026-05-04 19:28 40.78413 29.81099 26213 ft 462 kts 101°
2026-05-04 19:29 40.77447 29.85144 26490 ft 463 kts 101°
2026-05-04 19:29 40.76475 29.89209 26715 ft 466 kts 101°
2026-05-04 19:29 40.75496 29.93294 27012 ft 466 kts 101°
2026-05-04 19:29 40.74518 29.97361 27419 ft 464 kts 101°
2026-05-04 19:30 40.73544 30.01404 27841 ft 462 kts 101°
2026-05-04 19:30 40.72496 30.05410 28202 ft 466 kts 105°
2026-05-04 19:30 40.71150 30.09312 28540 ft 469 kts 109°
2026-05-04 19:30 40.69711 30.13163 28954 ft 469 kts 109°
2026-05-04 19:31 40.68230 30.17006 29340 ft 469 kts 110°
2026-05-04 19:31 40.66745 30.20822 29745 ft 468 kts 110°
2026-05-04 19:31 40.65256 30.24622 30142 ft 466 kts 110°
2026-05-04 19:31 40.63784 30.28356 30464 ft 465 kts 110°
2026-05-04 19:32 40.62295 30.32130 30740 ft 465 kts 110°
2026-05-04 19:32 40.60812 30.35911 30976 ft 465 kts 110°
2026-05-04 19:32 40.59365 30.39701 31281 ft 463 kts 109°
2026-05-04 19:32 40.57930 30.43494 31639 ft 461 kts 109°
2026-05-04 19:33 40.56512 30.47268 31943 ft 460 kts 109°
2026-05-04 19:33 40.55099 30.51048 32176 ft 460 kts 109°
2026-05-04 19:33 40.53908 30.54912 32372 ft 451 kts 98°
2026-05-04 19:33 40.53391 30.58924 32606 ft 440 kts 86°
2026-05-04 19:34 40.53419 30.62908 32906 ft 435 kts 83°
2026-05-04 19:34 40.53439 30.66893 33157 ft 436 kts 84°
2026-05-04 19:34 40.53406 30.70886 33359 ft 438 kts 85°
2026-05-04 19:34 40.53345 30.74888 33580 ft 438 kts 85°
2026-05-04 19:35 40.53274 30.78896 33845 ft 438 kts 86°
2026-05-04 19:35 40.53200 30.82892 34093 ft 437 kts 86°
2026-05-04 19:35 40.53128 30.86854 34263 ft 438 kts 86°
2026-05-04 19:35 40.53057 30.90848 34460 ft 437 kts 86°
2026-05-04 19:36 40.52987 30.94846 34651 ft 437 kts 86°
2026-05-04 19:36 40.52916 30.98834 34878 ft 437 kts 86°
2026-05-04 19:36 40.52845 31.02840 35015 ft 438 kts 86°
2026-05-04 19:37 40.52697 31.10912 35011 ft 445 kts 86°
2026-05-04 19:37 40.52526 31.19082 35006 ft 449 kts 89°
2026-05-04 19:38 40.51274 31.27239 35025 ft 461 kts 101°
2026-05-04 19:38 40.49440 31.35299 35006 ft 464 kts 101°
2026-05-04 19:39 40.47655 31.43403 34974 ft 457 kts 101°
2026-05-04 19:39 40.45929 31.51371 34981 ft 452 kts 101°
2026-05-04 19:40 40.44202 31.59314 34988 ft 452 kts 101°
2026-05-04 19:40 40.42470 31.67250 34982 ft 453 kts 101°
2026-05-04 19:41 40.40737 31.75168 34982 ft 455 kts 101°
2026-05-04 19:41 40.38978 31.83168 34973 ft 457 kts 101°
2026-05-04 19:42 40.37206 31.91205 34978 ft 460 kts 102°
2026-05-04 19:42 40.35401 31.99272 34970 ft 462 kts 102°
2026-05-04 19:43 40.33528 32.07352 34958 ft 463 kts 102°
2026-05-04 19:43 40.31769 32.15481 34969 ft 462 kts 101°
2026-05-04 19:44 40.30204 32.23671 34958 ft 463 kts 100°
2026-05-04 19:44 40.28635 32.31842 34940 ft 463 kts 101°
2026-05-04 19:45 40.27042 32.39948 34950 ft 463 kts 101°
2026-05-04 19:45 40.25419 32.48105 34949 ft 464 kts 101°
2026-05-04 19:46 40.23786 32.56275 34941 ft 464 kts 102°
2026-05-04 19:46 40.22145 32.64454 34932 ft 465 kts 102°
2026-05-04 19:47 40.20494 32.72656 34939 ft 465 kts 102°
2026-05-04 19:47 40.18838 32.80854 34936 ft 467 kts 102°
2026-05-04 19:48 40.17170 32.89078 34912 ft 468 kts 102°
2026-05-04 19:48 40.15494 32.97312 34916 ft 468 kts 102°
2026-05-04 19:49 40.14697 33.05690 34919 ft 463 kts 85°
2026-05-04 19:49 40.14986 33.14036 34920 ft 463 kts 85°
2026-05-04 19:50 40.15282 33.22466 34913 ft 464 kts 86°
2026-05-04 19:50 40.15529 33.30917 34912 ft 465 kts 86°
2026-05-04 19:51 40.15749 33.39360 34907 ft 465 kts 86°
2026-05-04 19:51 40.15927 33.46394 34900 ft 465 kts 86°
2026-05-04 19:52 40.16137 33.54874 34893 ft 466 kts 87°
2026-05-04 19:52 40.16342 33.63339 34883 ft 466 kts 87°
2026-05-04 19:53 40.16540 33.71806 34883 ft 466 kts 87°
2026-05-04 19:53 40.16732 33.80226 34879 ft 466 kts 87°
2026-05-04 19:54 40.16168 33.88658 34881 ft 467 kts 100°
2026-05-04 19:54 40.14903 33.97002 34867 ft 467 kts 99°
2026-05-04 19:55 40.13935 34.05401 34869 ft 467 kts 96°
2026-05-04 19:55 40.13091 34.13815 34872 ft 467 kts 96°
2026-05-04 19:56 40.12217 34.22213 34872 ft 467 kts 97°
2026-05-04 19:56 40.11305 34.30608 34869 ft 467 kts 97°
2026-05-04 19:57 40.10383 34.38949 34868 ft 467 kts 97°
2026-05-04 19:57 40.09447 34.47347 34865 ft 467 kts 98°
2026-05-04 19:58 40.08508 34.55735 34865 ft 467 kts 98°
2026-05-04 19:58 40.07563 34.64125 34860 ft 467 kts 98°
2026-05-04 19:59 40.06613 34.72504 34861 ft 466 kts 98°
2026-05-04 19:59 40.05658 34.80877 34857 ft 466 kts 98°
2026-05-04 20:00 40.04702 34.89198 34854 ft 467 kts 98°
2026-05-04 20:00 40.03732 34.97585 34859 ft 467 kts 98°
2026-05-04 20:01 40.02756 35.05973 34856 ft 467 kts 99°
2026-05-04 20:01 40.01775 35.14352 34850 ft 467 kts 99°
2026-05-04 20:02 40.00785 35.22756 34842 ft 468 kts 99°
2026-05-04 20:02 39.99799 35.31077 34841 ft 467 kts 99°
2026-05-04 20:03 39.98793 35.39446 34840 ft 467 kts 100°
2026-05-04 20:03 39.97745 35.47799 34831 ft 466 kts 100°
2026-05-04 20:04 39.96688 35.56149 34832 ft 466 kts 100°
2026-05-04 20:04 39.95631 35.64483 34841 ft 466 kts 100°
2026-05-04 20:05 39.94570 35.72824 34846 ft 466 kts 100°
2026-05-04 20:05 39.93503 35.81159 34855 ft 467 kts 100°
2026-05-04 20:06 39.92429 35.89509 34849 ft 467 kts 101°
2026-05-04 20:06 39.91343 35.97857 34866 ft 468 kts 101°
2026-05-04 20:07 39.90245 36.06157 34868 ft 468 kts 101°
2026-05-04 20:07 39.89134 36.14516 34874 ft 469 kts 101°
2026-05-04 20:08 39.88018 36.22889 34876 ft 469 kts 101°
2026-05-04 20:08 39.86862 36.31249 34875 ft 469 kts 102°
2026-05-04 20:09 39.85589 36.39573 34880 ft 469 kts 102°
2026-05-04 20:09 39.84470 36.47945 34890 ft 469 kts 101°
2026-05-04 20:10 39.83383 36.56315 34877 ft 469 kts 101°
2026-05-04 20:10 39.82265 36.64673 34883 ft 469 kts 102°
2026-05-04 20:11 39.81130 36.73022 34890 ft 469 kts 102°
2026-05-04 20:11 39.79988 36.81375 34882 ft 470 kts 102°
2026-05-04 20:12 39.79032 36.89785 34874 ft 472 kts 94°
2026-05-04 20:12 39.79525 36.98247 34889 ft 474 kts 85°
2026-05-04 20:13 39.80320 37.06761 34886 ft 474 kts 85°
2026-05-04 20:13 39.81059 37.15286 34875 ft 475 kts 86°
2026-05-04 20:14 39.81756 37.23831 34870 ft 475 kts 86°
2026-05-04 20:14 39.82444 37.32393 34861 ft 475 kts 86°
2026-05-04 20:15 39.83129 37.40941 34858 ft 475 kts 86°
2026-05-04 20:15 39.83800 37.49494 34857 ft 475 kts 86°
2026-05-04 20:16 39.84450 37.57993 34855 ft 474 kts 86°
2026-05-04 20:16 39.85098 37.66534 34861 ft 474 kts 86°
2026-05-04 20:17 39.85741 37.75079 34857 ft 474 kts 86°
2026-05-04 20:17 39.86379 37.83622 34864 ft 473 kts 87°
2026-05-04 20:18 39.87006 37.92115 34866 ft 474 kts 87°
2026-05-04 20:18 39.87631 38.00661 34868 ft 474 kts 87°
2026-05-04 20:19 39.88249 38.09209 34872 ft 474 kts 87°
2026-05-04 20:19 39.88862 38.17762 34876 ft 474 kts 87°
2026-05-04 20:20 39.89466 38.26274 34866 ft 475 kts 87°
2026-05-04 20:20 39.90067 38.34840 34871 ft 475 kts 87°
2026-05-04 20:21 39.90662 38.43421 34864 ft 476 kts 87°
2026-05-04 20:21 39.91545 38.56314 34865 ft 477 kts 88°
2026-05-04 20:22 39.92127 38.64920 34857 ft 477 kts 88°
2026-05-04 20:22 39.92702 38.73523 34849 ft 477 kts 88°
2026-05-04 20:23 39.93272 38.82140 34867 ft 477 kts 88°
2026-05-04 20:23 39.93794 38.90707 34858 ft 477 kts 90°
2026-05-04 20:24 39.94193 38.99358 34861 ft 479 kts 88°
2026-05-04 20:24 39.94732 39.08026 34880 ft 479 kts 88°
2026-05-04 20:25 39.95258 39.16690 34858 ft 480 kts 89°
2026-05-04 20:25 39.95750 39.25334 34878 ft 480 kts 89°
2026-05-04 20:26 39.96221 39.33953 34881 ft 479 kts 89°
2026-05-04 20:26 39.96686 39.42619 34901 ft 479 kts 89°
2026-05-04 20:27 39.97147 39.51302 34894 ft 480 kts 89°
2026-05-04 20:27 39.97601 39.59976 34883 ft 480 kts 89°
2026-05-04 20:28 39.98049 39.68650 34900 ft 480 kts 90°
2026-05-04 20:28 39.98491 39.77341 34916 ft 480 kts 90°
2026-05-04 20:29 39.98927 39.86046 34910 ft 481 kts 90°
2026-05-04 20:29 39.99358 39.94769 34925 ft 482 kts 90°
2026-05-04 20:30 39.99783 40.03514 34907 ft 484 kts 90°
2026-05-04 20:30 40.00199 40.12222 34914 ft 485 kts 90°
2026-05-04 20:31 40.00613 40.21009 34921 ft 486 kts 90°
2026-05-04 20:31 40.01021 40.29815 34926 ft 487 kts 90°
2026-05-04 20:32 40.01424 40.38652 34924 ft 488 kts 90°
2026-05-04 20:32 40.01820 40.47491 34923 ft 488 kts 90°
2026-05-04 20:33 40.02210 40.56326 34930 ft 488 kts 91°
2026-05-04 20:33 40.02593 40.65173 34940 ft 489 kts 91°
2026-05-04 20:34 40.02966 40.73971 34943 ft 489 kts 91°
2026-05-04 20:34 40.03337 40.82842 34955 ft 489 kts 91°
2026-05-04 20:35 40.03701 40.91726 34956 ft 489 kts 91°
2026-05-04 20:35 40.04058 41.00595 34948 ft 489 kts 91°
2026-05-04 20:36 40.04408 41.09462 34966 ft 489 kts 91°
2026-05-04 20:36 40.04751 41.18340 34969 ft 489 kts 92°
2026-05-04 20:37 40.05086 41.27167 34963 ft 490 kts 92°
2026-05-04 20:37 40.05416 41.36054 34960 ft 490 kts 92°
2026-05-04 20:38 40.05739 41.44940 34947 ft 490 kts 92°
2026-05-04 20:38 40.06056 41.53839 34967 ft 491 kts 92°
2026-05-04 20:39 40.06367 41.62758 34973 ft 492 kts 92°
2026-05-04 20:39 40.06671 41.71701 34965 ft 494 kts 92°
2026-05-04 20:40 40.06970 41.80660 34953 ft 494 kts 92°
2026-05-04 20:40 40.07213 41.88117 34956 ft 495 kts 92°
2026-05-04 20:41 40.07499 41.97087 34971 ft 495 kts 92°
2026-05-04 20:41 40.07779 42.06077 34970 ft 495 kts 92°
2026-05-04 20:42 40.08052 42.15072 34965 ft 495 kts 92°
2026-05-04 20:42 40.08318 42.24064 34955 ft 495 kts 92°
2026-05-04 20:43 40.08577 42.33068 34949 ft 495 kts 92°
2026-05-04 20:43 40.08827 42.41986 34954 ft 494 kts 92°
2026-05-04 20:44 40.09072 42.50968 34976 ft 494 kts 92°
2026-05-04 20:44 40.09309 42.59949 34963 ft 495 kts 93°
2026-05-04 20:45 40.09540 42.68939 34967 ft 495 kts 93°
2026-05-04 20:45 40.09764 42.77924 34958 ft 495 kts 93°
2026-05-04 20:46 40.09982 42.86925 34952 ft 496 kts 93°
2026-05-04 20:46 40.10190 42.95880 34971 ft 497 kts 93°
2026-05-04 20:47 40.10393 43.04912 34959 ft 498 kts 93°
2026-05-04 20:47 40.10593 43.13972 34959 ft 497 kts 93°
2026-05-04 20:48 40.10783 43.23001 34959 ft 497 kts 94°
2026-05-04 20:48 40.10966 43.32039 34946 ft 498 kts 94°
2026-05-04 20:49 40.11141 43.41040 34948 ft 499 kts 94°
2026-05-04 20:49 40.11311 43.50125 34925 ft 501 kts 94°
2026-05-04 20:50 40.11475 43.59249 34912 ft 503 kts 94°
2026-05-04 20:50 40.11767 43.68417 34877 ft 510 kts 87°
2026-05-04 20:51 40.13062 43.77583 34871 ft 515 kts 83°
2026-05-04 20:51 40.14523 43.86759 34854 ft 516 kts 83°
2026-05-04 20:52 40.15929 43.95972 34820 ft 517 kts 84°
2026-05-04 20:52 40.17276 44.05187 34831 ft 515 kts 84°
2026-05-04 20:53 40.18596 44.14375 34827 ft 514 kts 84°
2026-05-04 20:53 40.19907 44.23553 34829 ft 512 kts 84°
2026-05-04 20:54 40.21211 44.32710 34809 ft 511 kts 84°
2026-05-04 20:54 40.22495 44.41772 34824 ft 509 kts 85°
2026-05-04 20:55 40.23778 44.50881 34825 ft 508 kts 85°
2026-05-04 20:55 40.25052 44.59989 34830 ft 508 kts 85°
2026-05-04 20:56 40.26318 44.69085 34819 ft 507 kts 85°
2026-05-04 20:56 40.27575 44.78171 34841 ft 507 kts 85°
2026-05-04 20:57 40.28826 44.87270 34837 ft 508 kts 85°
2026-05-04 20:57 40.30071 44.96383 34824 ft 508 kts 85°
2026-05-04 20:58 40.31310 45.05501 34832 ft 508 kts 85°
2026-05-04 20:58 40.32542 45.14632 34818 ft 509 kts 85°
2026-05-04 20:59 40.33761 45.23725 34808 ft 511 kts 85°
2026-05-04 20:59 40.34988 45.32925 34814 ft 513 kts 85°
2026-05-04 21:00 40.36211 45.42157 34787 ft 514 kts 86°
2026-05-04 21:00 40.37427 45.51390 34787 ft 514 kts 86°
2026-05-04 21:01 40.38620 45.60621 34773 ft 512 kts 88°
2026-05-04 21:01 40.38607 45.69772 34784 ft 494 kts 106°
2026-05-04 21:02 40.37506 45.78658 34794 ft 493 kts 107°
2026-05-04 21:02 40.36389 45.87533 34791 ft 492 kts 107°
2026-05-04 21:03 40.35322 45.96340 34786 ft 492 kts 106°
2026-05-04 21:03 40.34266 46.05208 34779 ft 492 kts 106°
2026-05-04 21:04 40.33202 46.14133 34769 ft 492 kts 106°
2026-05-04 21:04 40.32146 46.22904 34794 ft 491 kts 107°
2026-05-04 21:05 40.31070 46.31756 34790 ft 492 kts 107°
2026-05-04 21:05 40.29984 46.40626 34783 ft 494 kts 107°
2026-05-04 21:06 40.28885 46.49552 34805 ft 498 kts 107°
2026-05-04 21:06 40.27767 46.58567 34808 ft 504 kts 107°
2026-05-04 21:07 40.26634 46.67660 34818 ft 507 kts 107°
2026-05-04 21:07 40.25507 46.76675 34801 ft 502 kts 107°
2026-05-04 21:08 40.24378 46.85650 34829 ft 498 kts 107°
2026-05-04 21:08 40.23240 46.94596 34838 ft 497 kts 107°
2026-05-04 21:09 40.22098 47.03505 34841 ft 496 kts 107°
2026-05-04 21:09 40.20950 47.12418 34805 ft 497 kts 108°
2026-05-04 21:10 40.19784 47.21401 34837 ft 504 kts 108°
2026-05-04 21:10 40.18603 47.30468 34829 ft 506 kts 108°
2026-05-04 21:11 40.17419 47.39534 34823 ft 505 kts 108°
2026-05-04 21:11 40.16936 47.48773 34841 ft 515 kts 96°
2026-05-04 21:12 40.17165 47.58088 34821 ft 515 kts 95°
2026-05-04 21:12 40.17403 47.67442 34827 ft 514 kts 95°
2026-05-04 21:13 40.17573 47.76794 34652 ft 517 kts 96°
2026-05-04 21:13 40.17641 47.81518 34047 ft 521 kts 96°
2026-05-04 21:13 40.17706 47.86256 33372 ft 521 kts 96°
2026-05-04 21:14 40.17770 47.90987 32667 ft 521 kts 96°
2026-05-04 21:14 40.17834 47.95723 31949 ft 520 kts 96°
2026-05-04 21:14 40.17896 48.00451 31218 ft 520 kts 96°
2026-05-04 21:14 40.17957 48.05182 30513 ft 520 kts 96°
2026-05-04 21:15 40.18017 48.09909 29758 ft 520 kts 96°
2026-05-04 21:15 40.18074 48.14639 28864 ft 519 kts 95°
2026-05-04 21:15 40.18129 48.19354 28027 ft 518 kts 95°
2026-05-04 21:15 40.18183 48.24057 27183 ft 516 kts 95°
2026-05-04 21:16 40.18235 48.28750 26295 ft 515 kts 95°
2026-05-04 21:16 40.18284 48.33438 25518 ft 512 kts 95°
2026-05-04 21:16 40.18332 48.38059 24916 ft 505 kts 95°
2026-05-04 21:16 40.18378 48.42616 24289 ft 499 kts 95°
2026-05-04 21:17 40.18421 48.47126 23675 ft 493 kts 95°
2026-05-04 21:17 40.18460 48.51527 22972 ft 487 kts 95°
2026-05-04 21:17 40.18497 48.55931 22309 ft 481 kts 95°
2026-05-04 21:17 40.18532 48.60283 21684 ft 474 kts 95°
2026-05-04 21:18 40.18564 48.64566 21081 ft 468 kts 95°
2026-05-04 21:18 40.18595 48.68806 20463 ft 463 kts 95°
2026-05-04 21:18 40.18623 48.72996 19863 ft 457 kts 95°
2026-05-04 21:18 40.18650 48.77128 19272 ft 452 kts 94°
2026-05-04 21:19 40.18676 48.81219 18684 ft 448 kts 94°
2026-05-04 21:19 40.18669 48.85269 18093 ft 442 kts 97°
2026-05-04 21:19 40.18313 48.89168 17437 ft 432 kts 106°
2026-05-04 21:19 40.17700 48.92986 16811 ft 426 kts 107°
2026-05-04 21:20 40.17069 48.96746 16242 ft 420 kts 107°
2026-05-04 21:20 40.16453 49.00459 15647 ft 416 kts 107°
2026-05-04 21:20 40.15857 49.04142 15084 ft 412 kts 107°
2026-05-04 21:20 40.15277 49.07790 14523 ft 408 kts 107°
2026-05-04 21:21 40.14708 49.11405 13991 ft 404 kts 106°
2026-05-04 21:21 40.14149 49.14980 13513 ft 398 kts 106°
2026-05-04 21:21 40.13598 49.18499 12995 ft 393 kts 106°
2026-05-04 21:21 40.13051 49.21981 12481 ft 389 kts 106°
2026-05-04 21:22 40.12517 49.25374 12021 ft 383 kts 106°
2026-05-04 21:22 40.11988 49.28737 11563 ft 372 kts 106°
2026-05-04 21:22 40.11514 49.32009 11093 ft 362 kts 100°
2026-05-04 21:22 40.11526 49.35273 10655 ft 356 kts 89°
2026-05-04 21:23 40.11728 49.38457 10222 ft 347 kts 89°
2026-05-04 21:23 40.11940 49.41562 9787 ft 339 kts 89°
2026-05-04 21:23 40.12135 49.44584 9407 ft 329 kts 89°
2026-05-04 21:23 40.12310 49.47524 9018 ft 320 kts 89°
2026-05-04 21:24 40.12471 49.50392 8646 ft 313 kts 90°
2026-05-04 21:24 40.12621 49.53193 8261 ft 306 kts 90°
2026-05-04 21:24 40.12764 49.55939 7890 ft 300 kts 90°
2026-05-04 21:24 40.12902 49.58637 7587 ft 293 kts 90°
2026-05-04 21:25 40.13035 49.61247 7382 ft 283 kts 90°
2026-05-04 21:25 40.13164 49.63778 7175 ft 274 kts 90°
2026-05-04 21:25 40.13288 49.66222 7037 ft 263 kts 90°
2026-05-04 21:25 40.13406 49.68551 7006 ft 253 kts 91°
2026-05-04 21:26 40.13517 49.70783 7028 ft 247 kts 91°
2026-05-04 21:26 40.13627 49.72991 6996 ft 239 kts 92°
2026-05-04 21:26 40.13399 49.75032 6979 ft 218 kts 126°
2026-05-04 21:26 40.12524 49.76588 6998 ft 212 kts 140°
2026-05-04 21:27 40.11467 49.77937 7010 ft 214 kts 143°
2026-05-04 21:27 40.10376 49.79282 6996 ft 216 kts 143°
2026-05-04 21:27 40.09284 49.80639 7003 ft 217 kts 143°
2026-05-04 21:27 40.08190 49.82008 6997 ft 218 kts 143°
2026-05-04 21:28 40.07174 49.83551 6534 ft 243 kts 118°
2026-05-04 21:28 40.06975 49.85808 5973 ft 265 kts 83°
2026-05-04 21:28 40.07395 49.87312 5746 ft 267 kts 63°
2026-05-04 21:28 40.09043 49.89619 5386 ft 259 kts 37°
2026-05-04 21:29 40.10504 49.90931 5185 ft 251 kts 33°
2026-05-04 21:29 40.11939 49.92151 4979 ft 242 kts 33°
2026-05-04 21:29 40.13328 49.93336 4796 ft 235 kts 34°
2026-05-04 21:29 40.14677 49.94497 4620 ft 229 kts 34°
2026-05-04 21:30 40.15978 49.95630 4476 ft 222 kts 34°
2026-05-04 21:30 40.16847 49.96391 4381 ft 222 kts 35°
2026-05-04 21:30 40.18118 49.97509 4216 ft 223 kts 35°
2026-05-04 21:30 40.19832 49.99024 3989 ft 220 kts 35°
2026-05-04 21:31 40.21902 50.00860 3672 ft 212 kts 34°
2026-05-04 21:31 40.23111 50.01935 3515 ft 209 kts 35°
2026-05-04 21:31 40.24302 50.02995 3369 ft 204 kts 35°
2026-05-04 21:32 40.25480 50.04044 3207 ft 205 kts 35°
2026-05-04 21:32 40.26664 50.05101 3059 ft 208 kts 35°
2026-05-04 21:32 40.27853 50.06162 2911 ft 204 kts 34°
2026-05-04 21:32 40.29004 50.07190 2737 ft 196 kts 33°
2026-05-04 21:33 40.30116 50.08159 2572 ft 187 kts 26°
2026-05-04 21:33 40.31302 50.08440 2426 ft 169 kts 347°
2026-05-04 21:33 40.32408 50.08168 2336 ft 158 kts 350°
2026-05-04 21:33 40.33466 50.07926 2234 ft 151 kts 348°
2026-05-04 21:34 40.34475 50.07639 2216 ft 151 kts 347°
2026-05-04 21:34 40.35547 50.07311 2049 ft 159 kts 347°
2026-05-04 21:34 40.36559 50.06992 1844 ft 142 kts 347°
2026-05-04 21:34 40.37506 50.06694 1663 ft 139 kts 347°
2026-05-04 21:35 40.38447 50.06397 1486 ft 140 kts 348°
2026-05-04 21:35 40.39382 50.06102 1291 ft 136 kts 348°
2026-05-04 21:35 40.40278 50.05820 1105 ft 134 kts 348°
2026-05-04 21:35 40.41187 50.05533 933 ft 134 kts 348°
2026-05-04 21:36 40.42101 50.05246 762 ft 139 kts 348°
2026-05-04 21:36 40.43076 50.04961 603 ft 149 kts 348°
2026-05-04 21:36 40.44055 50.04653 368 ft 141 kts 345°
2026-05-04 21:36 40.44983 50.04321 165 ft 135 kts 346°
2026-05-04 21:37 40.45869 50.04038 15 ft 125 kts 346°
2026-05-04 21:37 40.46601 50.03822 9 ft 86 kts 347°
2026-05-04 21:37 40.47038 50.03690 12 ft 43 kts 346°
2026-05-04 21:37 40.47179 50.03645 12 ft 0 kts 346°
2026-05-04 21:38 40.47204 50.03637 12 ft 9 kts 346°
2026-05-04 21:38 40.47286 50.03611 13 ft 15 kts 347°
2026-05-04 21:38 40.47395 50.03578 12 ft 16 kts 346°
2026-05-04 21:38 40.47502 50.03543 12 ft 15 kts 346°
2026-05-04 21:39 40.47599 50.03512 12 ft 8 kts 346°
2026-05-04 21:39 40.47641 50.03513 11 ft 7 kts 16°
2026-05-04 21:39 40.47678 50.03556 12 ft 8 kts 65°
2026-05-04 21:39 40.47682 50.03578 12 ft 0 kts 83°
2026-05-04 21:40 40.47682 50.03579 12 ft 1 kts 83°
2026-05-04 21:40 40.47683 50.03598 11 ft 4 kts 85°
2026-05-04 21:40 40.47672 50.03643 12 ft 7 kts 128°
2026-05-04 21:40 40.47609 50.03663 12 ft 12 kts 183°
2026-05-04 21:41 40.47511 50.03684 12 ft 15 kts 159°
2026-05-04 21:41 40.47414 50.03732 13 ft 15 kts 160°
2026-05-04 21:41 40.47321 50.03777 14 ft 14 kts 159°
2026-05-04 21:41 40.47226 50.03825 13 ft 15 kts 159°
2026-05-04 21:42 40.47131 50.03872 13 ft 14 kts 160°
2026-05-04 21:42 40.47040 50.03914 13 ft 14 kts 160°
2026-05-04 21:42 40.46954 50.03955 13 ft 13 kts 160°
2026-05-04 21:42 40.46873 50.04002 13 ft 12 kts 140°
2026-05-04 21:43 40.46851 50.04099 13 ft 11 kts 82°
2026-05-04 21:43 40.46869 50.04199 15 ft 12 kts 76°
2026-05-04 21:43 40.46888 50.04302 13 ft 11 kts 76°
2026-05-04 21:43 40.46903 50.04406 14 ft 12 kts 81°
2026-05-04 21:44 40.46909 50.04512 14 ft 11 kts 89°
2026-05-04 21:44 40.46910 50.04615 14 ft 11 kts 90°
2026-05-04 21:44 40.46912 50.04717 14 ft 12 kts 88°
2026-05-04 21:44 40.46915 50.04836 14 ft 13 kts 87°
2026-05-04 21:45 40.46918 50.04950 14 ft 13 kts 89°
2026-05-04 21:45 40.46921 50.05049 14 ft 11 kts 88°
2026-05-04 21:45 40.46924 50.05144 14 ft 10 kts 87°
2026-05-04 21:45 40.46922 50.05216 15 ft 5 kts 105°
2026-05-04 21:46 40.46896 50.05241 15 ft 5 kts 173°
2026-05-04 21:46 40.46862 50.05244 14 ft 5 kts 177°
2026-05-04 21:46 40.46827 50.05246 14 ft 6 kts 178°
2026-05-04 21:46 40.46784 50.05247 14 ft 5 kts 178°
2026-05-04 21:47 40.46764 50.05248 14 ft 2 kts 178°
2026-05-04 21:47 40.46752 50.05249 14 ft 1 kts 178°
2026-05-04 21:47 40.46747 50.05249 14 ft 0 kts 178°